This is the latest recevied weather packets stored in our database for station/object K7FRY. If no packets are shown the sender has not sent any weather packets the latest 10 day(s).
| Time | Temp. | Humidity | Pressure | Rain* | Wind** | Luminosity | Snow |
|---|---|---|---|---|---|---|---|
| 1777731009 | 20° C | 46% | 1017.8 hPa | 0 mm | - | 175 W/m² | - |
| 1777730708 | 20° C | 46% | 1017.6 hPa | 0 mm | - | 163 W/m² | - |
| 1777730403 | 19.44° C | 47% | 1017.4 hPa | 0 mm | - | 144 W/m² | - |
| 1777730099 | 18.89° C | 47% | 1017.5 hPa | 0 mm | - | 125 W/m² | - |
| 1777729796 | 18.89° C | 46% | 1017.4 hPa | 0 mm | - | 104 W/m² | - |
| 1777729493 | 18.33° C | 47% | 1017.3 hPa | 0 mm | - | 57 W/m² | - |
| 1777729190 | 18.33° C | 46% | 1017.4 hPa | 0 mm | - | 51 W/m² | - |
| 1777728886 | 17.78° C | 46% | 1017.1 hPa | 0 mm | - | 47 W/m² | - |
| 1777728583 | 17.78° C | 43% | 1017.4 hPa | 0 mm | - | 42 W/m² | - |
| 1777728280 | 17.78° C | 40% | 1017.2 hPa | 0 mm | - | 39 W/m² | - |
| 1777727978 | 16.67° C | 42% | 1017.2 hPa | 0 mm | - | 35 W/m² | - |
| 1777727674 | 16.11° C | 42% | 1016.8 hPa | 0 mm | - | 30 W/m² | - |
| 1777727371 | 15.56° C | 43% | 1016.8 hPa | 0 mm | - | 26 W/m² | - |
| 1777727068 | 15.56° C | 44% | 1016.8 hPa | 0 mm | - | 23 W/m² | - |
| 1777726766 | 15° C | 44% | 1016.8 hPa | 0 mm | - | 19 W/m² | - |
| 1777726463 | 13.89° C | 44% | 1016.7 hPa | 0 mm | - | 15 W/m² | - |
| 1777726160 | 13.89° C | 44% | 1016.6 hPa | 0 mm | - | 10 W/m² | - |
| 1777725856 | 13.33° C | 45% | 1016.4 hPa | 0 mm | - | 7 W/m² | - |
| 1777725554 | 13.89° C | 44% | 1016.5 hPa | 0 mm | - | 4 W/m² | - |
| 1777725251 | 13.89° C | 44% | 1016.4 hPa | 0 mm | - | 1 W/m² | - |
| 1777724948 | 13.33° C | 45% | 1016.4 hPa | 0 mm | - | 0 W/m² | - |
| 1777724644 | 13.33° C | 44% | 1016.3 hPa | 0 mm | - | 0 W/m² | - |
| 1777724343 | 13.89° C | 44% | 1016.4 hPa | 0 mm | - | 0 W/m² | - |
| 1777724039 | 13.89° C | 44% | 1016.2 hPa | 0 mm | - | 0 W/m² | - |
| 1777723737 | 13.33° C | 45% | 1016 hPa | 0 mm | - | 0 W/m² | - |
* Rain latest hour (hover to see other rain measurements)
** Current wind speed in m/s (hover to see current wind gust speed)